SCP
0 0 0 0 0 0 0 0 0 0 0 0 0 0 0 0 0 0 0 0 0 0 0 0 0 0 0 0 0 0 0 0 0 0 0 0 0 0 0 0 0 0 0
0 0 0 0 0 0 0 0 0 0 0 0 0 0 0 0 0 0 0 0 0 0 0 0 0 0 0 0 0 0 0 0 0 0 0 0 0 0 0 0 0 0 0
0 0 0 0 0 0 0 0 0 0 0 0 0 0 0 0 0 0 0 0 0 0 0 0 0 0 0 0 0 0 0 0 0 0 0 0 0 0 0 0 0 0 0
0 0 0 0 0 0 0 0 0 0 0 0 0 0 0 0 0 0 0 0 0 0 0 0 0 0 0 0 0 0 0 0 0 0 0 0 0 0 0 0 0 0 0
0 0 0 0 0 0 0 0 0 0 0 0 0 0 0 0 0 0 0 0 0 0 0 0 0 0 0 0 0 0 0 0 0 0 0 0 0 0 0 0 0 0 0
0 0 0 0 0 0 0 0 0 0 0 0 0 0 0 0 0 0 0 0 0 0 0 0 0 0 0 0 0 0 0 0 0 0 0 0 0 0 0 0 0 0 0
0 0 0 0 0 0 0 0 0 0 0 0 0 0 0 0 0 0 0 0 0 0 0 0 0 0 0 0 0 0 0 0 0 0 0 0 0 0 0 0 0 0 0
0 0 0 0 0 0 0 0 0 0 0 0 0 0 0 0 0 0 0 0 0 0 0 0 0 0 0 0 0 0 0 0 0 0 0 0 0 0 0 0 0 0 0
0 0 0 0 0 0 0 0 0 0 0 0 0 0 0 0 0 0 0 0 0 0 0 0 0 0 0 0 0 0 0 0 0 0 0 0 0 0 0 0 0 0 0
0 0 0 0 0 0 0 0 0 0 0 0 0 0 0 0 0 0 0 0 0 0 0 0 0 0 0 0 0 0 0 0 0 0 0 0 0 0 0 0 0 0 0
0 0 0 0 0 0 0 0 0 0 0 0 0 0 0 0 0 0 0 0 0 0 0 0 0 0 0 0 0 0 0 0 0 0 0 0 0 0 0 0 0 0 0
0 0 0 0 0 0 0 0 0 0 0 0 0 0 0 0 0 0 0 0 0 0 0 0 0 0 0 0 0 0 0 0 0 0 0 0 0 0 0 0 0 0 0
0 0 0 0 0 0 0 0 0 0 0 0 0 0 0 0 0 0 0 0 0 0 0 0 0 0 0 0 0 0 0 0 0 0 0 0 0 0 0 0 0 0 0
0 0 0 0 0 0 0 0 0 0 0 0 0 0 0 0 0 0 0 0 0 0 0 0 0 0 0 0 0 0 0 0 0 0 0 0 0 0 0 0 0 0 0
0 0 0 0 0 0 0 0 0 0 0 0 0 0 0 0 0 0 0 0 0 0 0 0 0 0 0 0 0 0 0 0 0 0 0 0 0 0 0 0 0 0 0
0 0 0 0 0 0 0 0 0 0 0 0 0 0 0 0 0 0 0 0 0 0 0 0 0 0 0 0 0 0 0 0 0 0 0 0 0 0 0 0 0 0 0
0 0 0 0 0 0 0 0 0 0 0 0 0 0 0 0 0 0 0 0 0 0 0 0 0 0 0 0 0 0 0 0 0 0 0 0 0 0 0 0 0 0 0
0 0 0 0 0 0 0 0 0 0 0 0 0 0 0 0 0 0 0 0 0 0 0 0 0 0 0 0 0 0 0 0 0 0 0 0 0 0 0 0 0 0 0
0 0 0 0 0 0 0 0 0 0 0 0 0 0 0 0 0 0 0 0 0 0 0 0 0 0 0 0 0 0 0 0 0 0 0 0 0 0 0 0 0 0 0
0 0 0 0 0 0 0 0 0 0 0 0 0 0 0 0 0 0 0 0 0 0 0 0 0 0 0 0 0 0 0 0 0 0 0 0 0 0 0 0 0 0 0
0 0 0 0 0 0 0 0 0 0 0 0 0 0 0 0 0 0 0 0 0 0 0 0 0 0 0 0 0 0 0 0 0 0 0 0 0 0 0 0 0 0 0
0 0 0 0 0 0 0 0 0 0 0 0 0 0 0 0 0 0 0 0 0 0 0 0 0 0 0 0 0 0 0 0 0 0 0 0 0 0 0 0 0 0 0
0 0 0 0 0 0 0 0 0 0 0 0 0 0 0 0 0 0 0 0 0 0 0 0 0 0 0 0 0 0 0 0 0 0 0 0 0 0 0 0 0 0 0
0 0 0 0 0 0 0 0 0 0 0 0 0 0 0 0 0 0 0 0 0 0 0 0 0 0 0 0 0 0 0 0 0 0 0 0 0 0 0 0 0 0 0
0 0 0 0 0 0 0 0 0 0 0 0 0 0 0 0 0 0 0 0 0 0 0 0 0 0 0 0 0 0 0 0 0 0 0 0 0 0 0 0 0 0 0
0 0 0 0 0 0 0 0 0 0 0 0 0 0 0 0 0 0 0 0 0 0 0 0 0 0 0 0 0 0 0 0 0 0 0 0 0 0 -0 0 0 0 0
Wind_Speed
2 2 2 2 2 2 2 2 2 3 3 4 3 4 4 3 3 2 2 6 7 8 8 8 8 8 9 9 10 9 9 9 9 9 10 10 10 10 10 10 10 9 9
2 2 2 2 2 2 2 2 2 3 2 3 3 4 4 3 3 3 2 3 6 6 7 8 8 8 8 9 9 9 9 8 8 9 9 9 9 9 9 9 8 8 8
3 2 2 2 2 2 2 2 3 2 3 3 3 3 3 3 3 3 2 2 2 4 5 7 7 7 7 7 7 8 8 8 9 9 8 8 8 8 7 7 7 7 7
3 2 2 2 2 2 2 2 2 3 3 2 2 2 2 2 2 2 2 2 2 2 3 5 5 5 6 6 6 7 8 8 8 7 7 6 6 6 6 6 6 6 6
2 2 2 2 2 2 2 3 2 2 3 3 2 2 2 2 2 2 2 2 2 2 2 3 4 4 4 4 5 6 7 7 6 6 5 5 4 4 4 4 4 4 4
3 2 2 2 2 3 2 3 3 2 2 3 3 3 2 2 2 2 1 1 2 2 2 2 2 2 3 4 5 6 5 5 4 4 4 4 3 3 3 3 3 2 2
3 2 2 2 2 3 3 3 3 3 2 3 3 3 2 2 2 2 1 1 1 1 2 2 1 2 1 3 4 4 4 4 3 3 2 2 2 2 2 2 1 1 1
3 3 3 3 2 3 3 3 4 3 1 1 2 3 1 2 2 2 1 1 0 1 1 2 2 2 2 1 2 3 3 3 2 2 2 1 1 1 1 1 1 1 1
3 3 3 3 3 3 4 4 4 4 3 1 1 2 3 3 1 2 2 1 0 1 1 1 2 2 2 1 1 1 2 1 1 1 1 1 0 1 2 2 2 2 2
3 3 3 3 3 3 4 4 3 3 4 2 0 1 1 3 2 0 2 2 1 1 1 1 1 2 2 1 0 1 1 1 1 0 0 1 1 1 2 2 2 2 2
2 3 3 3 3 3 3 4 3 3 3 3 2 1 1 1 1 2 1 1 1 1 0 1 1 1 1 1 0 0 0 0 1 1 1 1 1 2 2 3 3 3 2
2 2 3 3 3 3 3 3 4 4 3 3 2 2 2 2 2 2 2 1 1 1 1 1 1 1 1 1 1 1 1 1 2 2 2 2 2 2 3 3 3 3 3
2 3 3 4 3 3 3 3 3 3 3 4 3 2 2 2 2 2 2 2 1 1 1 1 1 1 1 1 1 2 2 3 3 3 3 3 3 3 3 3 4 4 4
3 3 3 4 4 4 3 3 3 3 3 3 3 3 2 2 2 3 3 3 2 1 1 2 1 2 2 2 2 2 2 4 4 4 4 4 3 3 3 3 4 4 4
3 3 3 3 3 4 4 4 2 4 3 3 3 3 2 2 1 1 2 3 4 3 3 3 2 2 2 2 3 2 2 4 5 4 4 4 4 4 3 3 4 4 5
3 3 4 3 3 3 3 4 3 3 4 3 3 3 3 2 2 2 2 1 2 3 3 2 3 2 2 2 3 2 3 4 5 5 5 5 5 4 4 4 4 5 5
4 4 4 4 4 4 4 4 4 4 4 4 3 4 4 3 3 2 2 2 2 2 3 2 1 1 2 2 2 2 2 2 3 6 6 6 6 5 5 5 5 5 5
4 5 4 4 4 4 4 5 5 4 5 5 5 4 4 3 4 3 3 3 3 3 3 3 2 2 3 3 2 2 2 2 2 5 7 7 6 6 6 6 5 5 5
5 4 5 5 5 5 5 5 5 5 6 6 6 6 5 5 4 4 4 4 3 2 2 3 3 2 1 1 2 2 2 2 3 4 6 6 6 6 6 6 6 6 6
5 5 5 5 5 5 5 5 5 5 5 5 5 5 5 6 6 6 5 5 4 3 3 3 3 2 2 2 2 2 2 2 3 3 4 5 6 7 7 7 6 6 6
5 5 5 5 5 5 5 6 6 6 6 6 5 5 6 7 7 6 5 5 5 4 4 3 3 2 3 2 3 2 3 2 2 2 2 3 3 3 4 6 6 6 7
4 4 5 5 5 5 7 9 7 5 5 6 6 5 6 7 8 9 9 9 8 7 6 5 4 5 5 4 3 3 2 2 3 2 2 3 2 3 3 3 6 7 7
4 5 5 5 6 7 9 9 9 5 5 6 6 6 5 6 7 6 7 9 9 11 10 7 6 7 6 5 5 4 4 4 4 2 2 4 3 4 3 4 7 8 7
4 5 5 5 5 6 9 9 9 6 5 6 6 7 7 6 7 6 5 6 6 6 7 6 6 6 5 5 6 5 5 3 2 2 2 3 3 3 3 3 7 7 7
3 4 4 5 5 5 8 9 8 4 4 6 6 6 7 7 10 10 6 6 6 5 6 8 8 7 8 8 6 3 3 3 3 3 2 2 2 2 2 3 4 6 6
3 3 3 4 5 5 7 8 8 4 5 5 4 5 9 9 10 10 7 7 7 6 4 4 4 5 5 6 8 6 5 4 3 3 3 2 2 1 2 2 2 2 3
Wind_Direction
101 99 86 78 71 64 73 79 85 90 85 80 83 91 88 85 79 69 67 83 99 109 113 116 115 109 110 110 108 106 103 101 98 97 95 92 90 90 90 90 89 88 87
109 118 106 95 85 76 76 92 96 97 88 89 88 86 88 84 74 66 57 64 76 94 108 112 113 114 111 112 111 110 108 107 104 98 94 91 88 86 86 88 89 87 86
112 115 117 108 101 96 90 88 83 88 85 80 83 82 81 80 78 64 51 48 51 65 94 107 109 113 115 115 117 116 113 107 103 102 99 95 91 86 85 85 87 87 85
112 116 120 123 112 106 101 98 92 95 85 80 79 74 76 76 78 74 65 56 48 41 66 87 98 106 112 117 120 120 117 112 108 107 105 100 97 95 90 88 88 85 83
118 128 124 124 120 111 105 106 97 109 110 99 93 77 70 72 64 68 71 67 61 51 45 56 63 79 97 113 115 117 121 120 117 113 108 102 106 112 107 101 95 89 87
127 128 130 119 125 119 108 109 114 97 118 120 99 73 53 49 55 58 69 70 70 65 56 51 41 46 68 94 107 108 114 121 123 124 119 118 119 129 126 122 113 104 97
140 136 135 134 135 135 135 129 119 115 103 112 101 76 30 27 41 31 38 67 68 70 89 76 53 54 56 78 98 107 108 110 119 128 130 136 140 142 158 160 162 158 155
149 152 152 163 155 144 134 132 120 125 134 124 123 121 74 3 351 358 8 79 109 78 96 93 93 82 82 72 69 97 116 116 112 108 130 166 168 175 187 197 217 217 211
161 163 171 170 167 164 160 159 151 143 157 195 103 138 150 193 280 328 337 355 153 131 110 121 116 105 99 96 85 61 85 108 137 130 104 99 217 236 252 256 251 243 245
156 158 167 175 175 174 170 172 164 157 151 163 244 7 127 144 153 224 323 355 17 134 145 143 131 131 117 109 71 55 65 23 190 187 272 251 320 292 271 277 280 270 259
165 170 167 170 175 180 183 176 173 168 165 168 170 153 108 71 128 151 207 296 348 317 235 172 155 151 136 127 190 201 111 249 237 263 284 305 299 292 301 289 279 272 265
184 183 176 175 180 183 188 190 184 181 183 178 179 165 154 158 172 149 172 202 242 284 291 231 193 186 174 167 228 253 256 247 253 261 266 276 284 294 304 309 311 311 285
210 205 192 188 188 192 192 186 186 187 189 184 187 194 189 180 156 152 155 166 218 271 264 257 231 199 200 184 225 246 263 263 260 259 261 270 282 288 292 296 302 301 304
209 212 201 196 195 192 193 186 188 192 186 187 194 193 203 209 171 162 161 157 165 258 255 247 246 214 208 200 225 236 248 266 262 258 265 272 279 289 293 291 295 294 297
204 207 211 204 201 192 193 191 196 197 186 190 192 194 202 210 189 183 172 176 170 192 232 225 223 223 224 212 228 222 230 256 265 262 263 274 279 279 281 288 291 289 291
200 201 212 208 202 193 191 192 203 202 188 195 189 185 197 210 203 194 192 202 211 188 216 215 217 223 218 236 236 227 235 255 261 267 262 264 271 271 272 272 276 278 281
203 203 209 208 201 199 192 191 201 202 197 199 197 196 207 204 196 195 188 190 209 196 221 249 237 221 202 219 244 245 243 239 254 265 266 262 262 264 263 268 271 274 274
210 209 207 206 207 205 197 198 201 208 203 203 206 204 211 205 202 198 195 201 207 209 204 232 245 225 224 214 218 240 256 252 249 262 267 263 259 261 265 271 271 269 269
209 210 207 207 211 211 206 208 205 212 210 209 207 206 208 201 212 208 204 204 207 214 209 211 230 232 244 218 215 249 254 259 262 263 264 261 257 260 264 267 269 266 263
209 212 216 215 216 218 215 213 212 216 215 215 213 212 209 206 210 207 209 207 203 204 203 209 220 221 231 228 204 223 254 248 261 275 261 263 265 265 263 264 263 259 259
218 215 216 221 219 218 216 214 213 216 213 214 215 216 218 222 226 220 217 204 199 204 203 211 221 220 219 212 219 217 233 251 266 252 254 265 268 262 258 260 259 256 259
220 217 219 219 221 227 232 232 227 219 215 214 218 222 226 228 233 234 235 226 214 208 208 211 220 225 225 219 212 216 225 241 262 229 230 264 251 252 251 247 254 258 258
227 223 226 221 222 227 233 233 232 229 221 218 219 221 229 231 233 224 231 233 230 230 224 216 219 224 223 213 204 212 220 232 245 228 221 258 243 251 250 252 258 259 257
235 232 228 224 226 232 235 236 234 228 224 224 222 221 223 226 225 220 222 227 230 233 232 226 222 224 223 212 206 210 213 238 275 245 210 248 247 251 259 253 258 256 252
238 239 238 222 224 237 238 238 236 222 226 227 225 223 222 222 230 229 223 223 231 240 245 237 235 236 232 226 209 179 191 209 252 247 211 228 246 266 269 255 251 252 257
238 240 251 239 229 235 239 237 234 222 225 230 229 228 233 232 231 228 218 214 224 229 219 228 232 238 233 224 220 208 200 210 232 240 207 207 226 229 273 264 247 257 259